�_�ސ쌧�S��,����@�璹,35.522980,139.752610,2014/07/18 23:50,0.033,��Sv/h,�],
�_�ސ쌧�S��,����@�璹,35.522980,139.752610,2014/07/18 23:40,0.033,��Sv/h,�],
�_�ސ쌧�S��,����@�璹,35.522980,139.752610,2014/07/18 23:30,0.033,��Sv/h,�],
�_�ސ쌧�S��,����@�璹,35.522980,139.752610,2014/07/18 23:20,0.034,��Sv/h,�],
�_�ސ쌧�S��,����@�璹,35.522980,139.752610,2014/07/18 23:10,0.034,��Sv/h,�],
�_�ސ쌧�S��,����@�璹,35.522980,139.752610,2014/07/18 23:00,0.033,��Sv/h,�],
�_�ސ쌧�S��,����@�璹,35.522980,139.752610,2014/07/18 22:50,0.034,��Sv/h,�],
�_�ސ쌧�S��,����@�璹,35.522980,139.752610,2014/07/18 22:40,0.034,��Sv/h,�],
�_�ސ쌧�S��,����@�璹,35.522980,139.752610,2014/07/18 22:30,0.034,��Sv/h,�],
�_�ސ쌧�S��,����@�璹,35.522980,139.752610,2014/07/18 22:20,0.034,��Sv/h,�],
�_�ސ쌧�S��,����@�璹,35.522980,139.752610,2014/07/18 22:10,0.034,��Sv/h,�],
�_�ސ쌧�S��,����@�璹,35.522980,139.752610,2014/07/18 22:00,0.034,��Sv/h,�],
�_�ސ쌧�S��,����@�璹,35.522980,139.752610,2014/07/18 21:50,0.035,��Sv/h,�],
�_�ސ쌧�S��,����@�璹,35.522980,139.752610,2014/07/18 21:40,0.036,��Sv/h,�],
�_�ސ쌧�S��,����@�璹,35.522980,139.752610,2014/07/18 21:30,0.036,��Sv/h,�],
�_�ސ쌧�S��,����@�璹,35.522980,139.752610,2014/07/18 21:20,0.036,��Sv/h,�],
�_�ސ쌧�S��,����@�璹,35.522980,139.752610,2014/07/18 21:10,0.037,��Sv/h,�],
�_�ސ쌧�S��,����@�璹,35.522980,139.752610,2014/07/18 21:00,0.037,��Sv/h,�],
�_�ސ쌧�S��,����@�璹,35.522980,139.752610,2014/07/18 20:50,0.035,��Sv/h,�],
�_�ސ쌧�S��,����@�璹,35.522980,139.752610,2014/07/18 20:40,0.034,��Sv/h,�],
�_�ސ쌧�S��,����@�璹,35.522980,139.752610,2014/07/18 20:30,0.033,��Sv/h,�],
�_�ސ쌧�S��,����@�璹,35.522980,139.752610,2014/07/18 20:20,0.033,��Sv/h,�],
�_�ސ쌧�S��,����@�璹,35.522980,139.752610,2014/07/18 20:10,0.033,��Sv/h,�],
�_�ސ쌧�S��,����@�璹,35.522980,139.752610,2014/07/18 20:00,0.032,��Sv/h,�],
�_�ސ쌧�S��,����@�璹,35.522980,139.752610,2014/07/18 19:50,0.033,��Sv/h,�],
�_�ސ쌧�S��,����@�璹,35.522980,139.752610,2014/07/18 19:40,0.033,��Sv/h,�],
�_�ސ쌧�S��,����@�璹,35.522980,139.752610,2014/07/18 19:30,0.033,��Sv/h,�],
�_�ސ쌧�S��,����@�璹,35.522980,139.752610,2014/07/18 19:20,0.033,��Sv/h,�],
�_�ސ쌧�S��,����@�璹,35.522980,139.752610,2014/07/18 19:10,0.033,��Sv/h,�],
�_�ސ쌧�S��,����@�璹,35.522980,139.752610,2014/07/18 19:00,0.032,��Sv/h,�],
�_�ސ쌧�S��,����@�璹,35.522980,139.752610,2014/07/18 18:50,0.032,��Sv/h,�],
�_�ސ쌧�S��,����@�璹,35.522980,139.752610,2014/07/18 18:40,0.032,��Sv/h,�],
�_�ސ쌧�S��,����@�璹,35.522980,139.752610,2014/07/18 18:30,0.032,��Sv/h,�],
�_�ސ쌧�S��,����@�璹,35.522980,139.752610,2014/07/18 18:20,0.032,��Sv/h,�],
�_�ސ쌧�S��,����@�璹,35.522980,139.752610,2014/07/18 18:10,0.033,��Sv/h,�],
�_�ސ쌧�S��,����@�璹,35.522980,139.752610,2014/07/18 18:00,0.032,��Sv/h,�],
�_�ސ쌧�S��,����@�璹,35.522980,139.752610,2014/07/18 17:50,0.033,��Sv/h,�],
�_�ސ쌧�S��,����@�璹,35.522980,139.752610,2014/07/18 17:40,0.033,��Sv/h,�],
�_�ސ쌧�S��,����@�璹,35.522980,139.752610,2014/07/18 17:30,0.033,��Sv/h,�],
�_�ސ쌧�S��,����@�璹,35.522980,139.752610,2014/07/18 17:20,0.032,��Sv/h,�],
�_�ސ쌧�S��,����@�璹,35.522980,139.752610,2014/07/18 17:10,0.032,��Sv/h,�],
�_�ސ쌧�S��,����@�璹,35.522980,139.752610,2014/07/18 17:00,0.033,��Sv/h,�],
�_�ސ쌧�S��,����@�璹,35.522980,139.752610,2014/07/18 16:50,0.032,��Sv/h,�],
�_�ސ쌧�S��,����@�璹,35.522980,139.752610,2014/07/18 16:40,0.033,��Sv/h,�],
�_�ސ쌧�S��,����@�璹,35.522980,139.752610,2014/07/18 16:30,0.032,��Sv/h,�],
�_�ސ쌧�S��,����@�璹,35.522980,139.752610,2014/07/18 16:20,0.032,��Sv/h,�],
�_�ސ쌧�S��,����@�璹,35.522980,139.752610,2014/07/18 16:10,0.032,��Sv/h,�],
�_�ސ쌧�S��,����@�璹,35.522980,139.752610,2014/07/18 16:00,0.032,��Sv/h,�],
�_�ސ쌧�S��,����@�璹,35.522980,139.752610,2014/07/18 15:50,0.032,��Sv/h,�],
�_�ސ쌧�S��,����@�璹,35.522980,139.752610,2014/07/18 15:40,0.032,��Sv/h,�],
�_�ސ쌧�S��,����@�璹,35.522980,139.752610,2014/07/18 15:30,0.032,��Sv/h,�],
�_�ސ쌧�S��,����@�璹,35.522980,139.752610,2014/07/18 15:20,0.032,��Sv/h,�],
�_�ސ쌧�S��,����@�璹,35.522980,139.752610,2014/07/18 15:10,0.033,��Sv/h,�],
�_�ސ쌧�S��,����@�璹,35.522980,139.752610,2014/07/18 15:00,0.033,��Sv/h,�],
�_�ސ쌧�S��,����@�璹,35.522980,139.752610,2014/07/18 14:50,0.033,��Sv/h,�],
�_�ސ쌧�S��,����@�璹,35.522980,139.752610,2014/07/18 14:40,0.031,��Sv/h,�],
�_�ސ쌧�S��,����@�璹,35.522980,139.752610,2014/07/18 14:30,0.032,��Sv/h,�],
�_�ސ쌧�S��,����@�璹,35.522980,139.752610,2014/07/18 14:20,0.032,��Sv/h,�],
�_�ސ쌧�S��,����@�璹,35.522980,139.752610,2014/07/18 14:10,0.032,��Sv/h,�],
�_�ސ쌧�S��,����@�璹,35.522980,139.752610,2014/07/18 14:00,0.032,��Sv/h,�],
�_�ސ쌧�S��,����@�璹,35.522980,139.752610,2014/07/18 13:50,0.032,��Sv/h,�],
�_�ސ쌧�S��,����@�璹,35.522980,139.752610,2014/07/18 13:40,0.032,��Sv/h,�],
�_�ސ쌧�S��,����@�璹,35.522980,139.752610,2014/07/18 13:30,0.032,��Sv/h,�],
�_�ސ쌧�S��,����@�璹,35.522980,139.752610,2014/07/18 13:20,0.032,��Sv/h,�],
�_�ސ쌧�S��,����@�璹,35.522980,139.752610,2014/07/18 13:10,0.033,��Sv/h,�],
�_�ސ쌧�S��,����@�璹,35.522980,139.752610,2014/07/18 13:00,0.033,��Sv/h,�],
�_�ސ쌧�S��,����@�璹,35.522980,139.752610,2014/07/18 12:50,0.032,��Sv/h,�],
�_�ސ쌧�S��,����@�璹,35.522980,139.752610,2014/07/18 12:40,0.032,��Sv/h,�],
�_�ސ쌧�S��,����@�璹,35.522980,139.752610,2014/07/18 12:30,0.033,��Sv/h,�],
�_�ސ쌧�S��,����@�璹,35.522980,139.752610,2014/07/18 12:20,0.033,��Sv/h,�],
�_�ސ쌧�S��,����@�璹,35.522980,139.752610,2014/07/18 12:10,0.033,��Sv/h,�],
�_�ސ쌧�S��,����@�璹,35.522980,139.752610,2014/07/18 12:00,0.033,��Sv/h,�],
�_�ސ쌧�S��,����@�璹,35.522980,139.752610,2014/07/18 11:50,0.033,��Sv/h,�],
�_�ސ쌧�S��,����@�璹,35.522980,139.752610,2014/07/18 11:40,0.033,��Sv/h,�],
�_�ސ쌧�S��,����@�璹,35.522980,139.752610,2014/07/18 11:30,0.033,��Sv/h,�],
�_�ސ쌧�S��,����@�璹,35.522980,139.752610,2014/07/18 11:20,0.032,��Sv/h,�],
�_�ސ쌧�S��,����@�璹,35.522980,139.752610,2014/07/18 11:10,0.033,��Sv/h,�],
�_�ސ쌧�S��,����@�璹,35.522980,139.752610,2014/07/18 11:00,0.033,��Sv/h,�],
�_�ސ쌧�S��,����@�璹,35.522980,139.752610,2014/07/18 10:50,0.033,��Sv/h,�],
�_�ސ쌧�S��,����@�璹,35.522980,139.752610,2014/07/18 10:40,0.033,��Sv/h,�],
�_�ސ쌧�S��,����@�璹,35.522980,139.752610,2014/07/18 10:30,0.033,��Sv/h,�],
�_�ސ쌧�S��,����@�璹,35.522980,139.752610,2014/07/18 10:20,0.033,��Sv/h,�],
�_�ސ쌧�S��,����@�璹,35.522980,139.752610,2014/07/18 10:10,0.032,��Sv/h,�],
�_�ސ쌧�S��,����@�璹,35.522980,139.752610,2014/07/18 10:00,0.033,��Sv/h,�],
�_�ސ쌧�S��,����@�璹,35.522980,139.752610,2014/07/18 09:50,0.032,��Sv/h,�],
�_�ސ쌧�S��,����@�璹,35.522980,139.752610,2014/07/18 09:40,0.033,��Sv/h,�],
�_�ސ쌧�S��,����@�璹,35.522980,139.752610,2014/07/18 09:30,0.032,��Sv/h,�],
�_�ސ쌧�S��,����@�璹,35.522980,139.752610,2014/07/18 09:20,0.032,��Sv/h,�],
�_�ސ쌧�S��,����@�璹,35.522980,139.752610,2014/07/18 09:10,0.033,��Sv/h,�],
�_�ސ쌧�S��,����@�璹,35.522980,139.752610,2014/07/18 09:00,0.033,��Sv/h,�],
�_�ސ쌧�S��,����@�璹,35.522980,139.752610,2014/07/18 08:50,0.033,��Sv/h,�],
�_�ސ쌧�S��,����@�璹,35.522980,139.752610,2014/07/18 08:40,0.033,��Sv/h,�],
�_�ސ쌧�S��,����@�璹,35.522980,139.752610,2014/07/18 08:30,0.033,��Sv/h,�],
�_�ސ쌧�S��,����@�璹,35.522980,139.752610,2014/07/18 08:20,0.033,��Sv/h,�],
�_�ސ쌧�S��,����@�璹,35.522980,139.752610,2014/07/18 08:10,0.033,��Sv/h,�],
�_�ސ쌧�S��,����@�璹,35.522980,139.752610,2014/07/18 08:00,0.033,��Sv/h,�],
�_�ސ쌧�S��,����@�璹,35.522980,139.752610,2014/07/18 07:50,0.034,��Sv/h,�],
�_�ސ쌧�S��,����@�璹,35.522980,139.752610,2014/07/18 07:40,0.034,��Sv/h,�],
�_�ސ쌧�S��,����@�璹,35.522980,139.752610,2014/07/18 07:30,0.034,��Sv/h,�],
�_�ސ쌧�S��,����@�璹,35.522980,139.752610,2014/07/18 07:20,0.034,��Sv/h,�],
�_�ސ쌧�S��,����@�璹,35.522980,139.752610,2014/07/18 07:10,0.035,��Sv/h,�],
�_�ސ쌧�S��,����@�璹,35.522980,139.752610,2014/07/18 07:00,0.035,��Sv/h,�],
�_�ސ쌧�S��,����@�璹,35.522980,139.752610,2014/07/18 06:50,0.036,��Sv/h,�],
�_�ސ쌧�S��,����@�璹,35.522980,139.752610,2014/07/18 06:40,0.035,��Sv/h,�],
�_�ސ쌧�S��,����@�璹,35.522980,139.752610,2014/07/18 06:30,0.036,��Sv/h,�],
�_�ސ쌧�S��,����@�璹,35.522980,139.752610,2014/07/18 06:20,0.035,��Sv/h,�],
�_�ސ쌧�S��,����@�璹,35.522980,139.752610,2014/07/18 06:10,0.036,��Sv/h,�],
�_�ސ쌧�S��,����@�璹,35.522980,139.752610,2014/07/18 06:00,0.037,��Sv/h,�],
�_�ސ쌧�S��,����@�璹,35.522980,139.752610,2014/07/18 05:50,0.037,��Sv/h,�],
�_�ސ쌧�S��,����@�璹,35.522980,139.752610,2014/07/18 05:40,0.037,��Sv/h,�],
�_�ސ쌧�S��,����@�璹,35.522980,139.752610,2014/07/18 05:30,0.037,��Sv/h,�],
�_�ސ쌧�S��,����@�璹,35.522980,139.752610,2014/07/18 05:20,0.038,��Sv/h,�],
�_�ސ쌧�S��,����@�璹,35.522980,139.752610,2014/07/18 05:10,0.038,��Sv/h,�],
�_�ސ쌧�S��,����@�璹,35.522980,139.752610,2014/07/18 05:00,0.037,��Sv/h,�],
�_�ސ쌧�S��,����@�璹,35.522980,139.752610,2014/07/18 04:50,0.035,��Sv/h,�],
�_�ސ쌧�S��,����@�璹,35.522980,139.752610,2014/07/18 04:40,0.034,��Sv/h,�],
�_�ސ쌧�S��,����@�璹,35.522980,139.752610,2014/07/18 04:30,0.034,��Sv/h,�],
�_�ސ쌧�S��,����@�璹,35.522980,139.752610,2014/07/18 04:20,0.034,��Sv/h,�],
�_�ސ쌧�S��,����@�璹,35.522980,139.752610,2014/07/18 04:10,0.034,��Sv/h,�],
�_�ސ쌧�S��,����@�璹,35.522980,139.752610,2014/07/18 04:00,0.034,��Sv/h,�],
�_�ސ쌧�S��,����@�璹,35.522980,139.752610,2014/07/18 03:50,0.033,��Sv/h,�],
�_�ސ쌧�S��,����@�璹,35.522980,139.752610,2014/07/18 03:40,0.034,��Sv/h,�],
�_�ސ쌧�S��,����@�璹,35.522980,139.752610,2014/07/18 03:30,0.034,��Sv/h,�],
�_�ސ쌧�S��,����@�璹,35.522980,139.752610,2014/07/18 03:20,0.033,��Sv/h,�],
�_�ސ쌧�S��,����@�璹,35.522980,139.752610,2014/07/18 03:10,0.034,��Sv/h,�],
�_�ސ쌧�S��,����@�璹,35.522980,139.752610,2014/07/18 03:00,0.033,��Sv/h,�],
�_�ސ쌧�S��,����@�璹,35.522980,139.752610,2014/07/18 02:50,0.033,��Sv/h,�],
�_�ސ쌧�S��,����@�璹,35.522980,139.752610,2014/07/18 02:40,0.033,��Sv/h,�],
�_�ސ쌧�S��,����@�璹,35.522980,139.752610,2014/07/18 02:30,0.033,��Sv/h,�],
�_�ސ쌧�S��,����@�璹,35.522980,139.752610,2014/07/18 02:20,0.033,��Sv/h,�],
�_�ސ쌧�S��,����@�璹,35.522980,139.752610,2014/07/18 02:10,0.033,��Sv/h,�],
�_�ސ쌧�S��,����@�璹,35.522980,139.752610,2014/07/18 02:00,0.034,��Sv/h,�],
�_�ސ쌧�S��,����@�璹,35.522980,139.752610,2014/07/18 01:50,0.033,��Sv/h,�],
�_�ސ쌧�S��,����@�璹,35.522980,139.752610,2014/07/18 01:40,0.033,��Sv/h,�],
�_�ސ쌧�S��,����@�璹,35.522980,139.752610,2014/07/18 01:30,0.034,��Sv/h,�],
�_�ސ쌧�S��,����@�璹,35.522980,139.752610,2014/07/18 01:20,0.033,��Sv/h,�],
�_�ސ쌧�S��,����@�璹,35.522980,139.752610,2014/07/18 01:10,0.033,��Sv/h,�],
�_�ސ쌧�S��,����@�璹,35.522980,139.752610,2014/07/18 01:00,0.033,��Sv/h,�],
�_�ސ쌧�S��,����@�璹,35.522980,139.752610,2014/07/18 00:50,0.033,��Sv/h,�],
�_�ސ쌧�S��,����@�璹,35.522980,139.752610,2014/07/18 00:40,0.033,��Sv/h,�],
�_�ސ쌧�S��,����@�璹,35.522980,139.752610,2014/07/18 00:30,0.033,��Sv/h,�],
�_�ސ쌧�S��,����@�璹,35.522980,139.752610,2014/07/18 00:20,0.033,��Sv/h,�],
�_�ސ쌧�S��,����@�璹,35.522980,139.752610,2014/07/18 00:10,0.033,��Sv/h,�],
�_�ސ쌧�S��,����@�璹,35.522980,139.752610,2014/07/18 00:00,0.033,��Sv/h,�],
�_�ސ쌧�S��,����@�璹,35.522980,139.752610,2014/07/17 23:50,0.033,��Sv/h,�],
�_�ސ쌧�S��,����@�璹,35.522980,139.752610,2014/07/17 23:40,0.034,��Sv/h,�],
�_�ސ쌧�S��,����@�璹,35.522980,139.752610,2014/07/17 23:30,0.033,��Sv/h,�],
�_�ސ쌧�S��,����@�璹,35.522980,139.752610,2014/07/17 23:20,0.033,��Sv/h,�],
�_�ސ쌧�S��,����@�璹,35.522980,139.752610,2014/07/17 23:10,0.033,��Sv/h,�],
�_�ސ쌧�S��,����@�璹,35.522980,139.752610,2014/07/17 23:00,0.033,��Sv/h,�],
�_�ސ쌧�S��,����@�璹,35.522980,139.752610,2014/07/17 22:50,0.033,��Sv/h,�],
�_�ސ쌧�S��,����@�璹,35.522980,139.752610,2014/07/17 22:40,0.034,��Sv/h,�],
�_�ސ쌧�S��,����@�璹,35.522980,139.752610,2014/07/17 22:30,0.033,��Sv/h,�],
�_�ސ쌧�S��,����@�璹,35.522980,139.752610,2014/07/17 22:20,0.033,��Sv/h,�],
�_�ސ쌧�S��,����@�璹,35.522980,139.752610,2014/07/17 22:10,0.033,��Sv/h,�],
�_�ސ쌧�S��,����@�璹,35.522980,139.752610,2014/07/17 22:00,0.034,��Sv/h,�],
�_�ސ쌧�S��,����@�璹,35.522980,139.752610,2014/07/17 21:50,0.033,��Sv/h,�],
�_�ސ쌧�S��,����@�璹,35.522980,139.752610,2014/07/17 21:40,0.033,��Sv/h,�],
�_�ސ쌧�S��,����@�璹,35.522980,139.752610,2014/07/17 21:30,0.033,��Sv/h,�],
�_�ސ쌧�S��,����@�璹,35.522980,139.752610,2014/07/17 21:20,0.033,��Sv/h,�],
�_�ސ쌧�S��,����@�璹,35.522980,139.752610,2014/07/17 21:10,0.033,��Sv/h,�],
�_�ސ쌧�S��,����@�璹,35.522980,139.752610,2014/07/17 21:00,0.033,��Sv/h,�],
�_�ސ쌧�S��,����@�璹,35.522980,139.752610,2014/07/17 20:50,0.033,��Sv/h,�],
�_�ސ쌧�S��,����@�璹,35.522980,139.752610,2014/07/17 20:40,0.033,��Sv/h,�],
�_�ސ쌧�S��,����@�璹,35.522980,139.752610,2014/07/17 20:30,0.033,��Sv/h,�],
�_�ސ쌧�S��,����@�璹,35.522980,139.752610,2014/07/17 20:20,0.033,��Sv/h,�],
�_�ސ쌧�S��,����@�璹,35.522980,139.752610,2014/07/17 20:10,0.033,��Sv/h,�],
�_�ސ쌧�S��,����@�璹,35.522980,139.752610,2014/07/17 20:00,0.033,��Sv/h,�],
�_�ސ쌧�S��,����@�璹,35.522980,139.752610,2014/07/17 19:50,0.033,��Sv/h,�],
�_�ސ쌧�S��,����@�璹,35.522980,139.752610,2014/07/17 19:40,0.032,��Sv/h,�],
�_�ސ쌧�S��,����@�璹,35.522980,139.752610,2014/07/17 19:30,0.033,��Sv/h,�],
�_�ސ쌧�S��,����@�璹,35.522980,139.752610,2014/07/17 19:20,0.033,��Sv/h,�],
�_�ސ쌧�S��,����@�璹,35.522980,139.752610,2014/07/17 19:10,0.033,��Sv/h,�],
�_�ސ쌧�S��,����@�璹,35.522980,139.752610,2014/07/17 19:00,0.033,��Sv/h,�],
�_�ސ쌧�S��,����@�璹,35.522980,139.752610,2014/07/17 18:50,0.033,��Sv/h,�],
�_�ސ쌧�S��,����@�璹,35.522980,139.752610,2014/07/17 18:40,0.034,��Sv/h,�],
�_�ސ쌧�S��,����@�璹,35.522980,139.752610,2014/07/17 18:30,0.033,��Sv/h,�],
�_�ސ쌧�S��,����@�璹,35.522980,139.752610,2014/07/17 18:20,0.033,��Sv/h,�],
�_�ސ쌧�S��,����@�璹,35.522980,139.752610,2014/07/17 18:10,0.033,��Sv/h,�],
�_�ސ쌧�S��,����@�璹,35.522980,139.752610,2014/07/17 18:00,0.033,��Sv/h,�],
�_�ސ쌧�S��,����@�璹,35.522980,139.752610,2014/07/17 17:50,0.033,��Sv/h,�],
�_�ސ쌧�S��,����@�璹,35.522980,139.752610,2014/07/17 17:40,0.033,��Sv/h,�],
�_�ސ쌧�S��,����@�璹,35.522980,139.752610,2014/07/17 17:30,0.032,��Sv/h,�],
�_�ސ쌧�S��,����@�璹,35.522980,139.752610,2014/07/17 17:20,0.032,��Sv/h,�],
�_�ސ쌧�S��,����@�璹,35.522980,139.752610,2014/07/17 17:10,0.033,��Sv/h,�],
�_�ސ쌧�S��,����@�璹,35.522980,139.752610,2014/07/17 17:00,0.033,��Sv/h,�],
�_�ސ쌧�S��,����@�璹,35.522980,139.752610,2014/07/17 16:50,0.033,��Sv/h,�],
�_�ސ쌧�S��,����@�璹,35.522980,139.752610,2014/07/17 16:40,0.033,��Sv/h,�],
�_�ސ쌧�S��,����@�璹,35.522980,139.752610,2014/07/17 16:30,0.032,��Sv/h,�],
�_�ސ쌧�S��,����@�璹,35.522980,139.752610,2014/07/17 16:20,0.033,��Sv/h,�],
�_�ސ쌧�S��,����@�璹,35.522980,139.752610,2014/07/17 16:10,0.033,��Sv/h,�],
�_�ސ쌧�S��,����@�璹,35.522980,139.752610,2014/07/17 16:00,0.033,��Sv/h,�],
�_�ސ쌧�S��,����@�璹,35.522980,139.752610,2014/07/17 15:50,0.033,��Sv/h,�],
�_�ސ쌧�S��,����@�璹,35.522980,139.752610,2014/07/17 15:40,0.032,��Sv/h,�],
�_�ސ쌧�S��,����@�璹,35.522980,139.752610,2014/07/17 15:30,0.033,��Sv/h,�],
�_�ސ쌧�S��,����@�璹,35.522980,139.752610,2014/07/17 15:20,0.033,��Sv/h,�],
�_�ސ쌧�S��,����@�璹,35.522980,139.752610,2014/07/17 15:10,0.032,��Sv/h,�],
�_�ސ쌧�S��,����@�璹,35.522980,139.752610,2014/07/17 15:00,0.033,��Sv/h,�],
�_�ސ쌧�S��,����@�璹,35.522980,139.752610,2014/07/17 14:50,0.032,��Sv/h,�],
�_�ސ쌧�S��,����@�璹,35.522980,139.752610,2014/07/17 14:40,0.033,��Sv/h,�],
�_�ސ쌧�S��,����@�璹,35.522980,139.752610,2014/07/17 14:30,0.033,��Sv/h,�],
�_�ސ쌧�S��,����@�璹,35.522980,139.752610,2014/07/17 14:20,0.033,��Sv/h,�],
�_�ސ쌧�S��,����@�璹,35.522980,139.752610,2014/07/17 14:10,0.033,��Sv/h,�],
�_�ސ쌧�S��,����@�璹,35.522980,139.752610,2014/07/17 14:00,0.033,��Sv/h,�],
�_�ސ쌧�S��,����@�璹,35.522980,139.752610,2014/07/17 13:50,0.033,��Sv/h,�],
�_�ސ쌧�S��,����@�璹,35.522980,139.752610,2014/07/17 13:40,0.032,��Sv/h,�],
�_�ސ쌧�S��,����@�璹,35.522980,139.752610,2014/07/17 13:30,0.033,��Sv/h,�],
�_�ސ쌧�S��,����@�璹,35.522980,139.752610,2014/07/17 13:20,0.033,��Sv/h,�],
�_�ސ쌧�S��,����@�璹,35.522980,139.752610,2014/07/17 13:10,0.032,��Sv/h,�],
�_�ސ쌧�S��,����@�璹,35.522980,139.752610,2014/07/17 13:00,0.033,��Sv/h,�],
�_�ސ쌧�S��,����@�璹,35.522980,139.752610,2014/07/17 12:50,0.033,��Sv/h,�],
�_�ސ쌧�S��,����@�璹,35.522980,139.752610,2014/07/17 12:40,0.033,��Sv/h,�],
�_�ސ쌧�S��,����@�璹,35.522980,139.752610,2014/07/17 12:30,0.033,��Sv/h,�],
�_�ސ쌧�S��,����@�璹,35.522980,139.752610,2014/07/17 12:20,0.033,��Sv/h,�],
�_�ސ쌧�S��,����@�璹,35.522980,139.752610,2014/07/17 12:10,0.033,��Sv/h,�],
�_�ސ쌧�S��,����@�璹,35.522980,139.752610,2014/07/17 12:00,0.033,��Sv/h,�],
�_�ސ쌧�S��,����@�璹,35.522980,139.752610,2014/07/17 11:50,0.033,��Sv/h,�],
�_�ސ쌧�S��,����@�璹,35.522980,139.752610,2014/07/17 11:40,0.033,��Sv/h,�],
�_�ސ쌧�S��,����@�璹,35.522980,139.752610,2014/07/17 11:30,0.033,��Sv/h,�],
�_�ސ쌧�S��,����@�璹,35.522980,139.752610,2014/07/17 11:20,0.033,��Sv/h,�],
�_�ސ쌧�S��,����@�璹,35.522980,139.752610,2014/07/17 11:10,0.033,��Sv/h,�],
�_�ސ쌧�S��,����@�璹,35.522980,139.752610,2014/07/17 11:00,0.033,��Sv/h,�],
�_�ސ쌧�S��,����@�璹,35.522980,139.752610,2014/07/17 10:50,0.033,��Sv/h,�],
�_�ސ쌧�S��,����@�璹,35.522980,139.752610,2014/07/17 10:40,0.033,��Sv/h,�],
�_�ސ쌧�S��,����@�璹,35.522980,139.752610,2014/07/17 10:30,0.033,��Sv/h,�],
�_�ސ쌧�S��,����@�璹,35.522980,139.752610,2014/07/17 10:20,0.033,��Sv/h,�],
�_�ސ쌧�S��,����@�璹,35.522980,139.752610,2014/07/17 10:10,0.033,��Sv/h,�],
�_�ސ쌧�S��,����@�璹,35.522980,139.752610,2014/07/17 10:00,0.033,��Sv/h,�],
�_�ސ쌧�S��,����@�璹,35.522980,139.752610,2014/07/17 09:50,0.032,��Sv/h,�],
�_�ސ쌧�S��,����@�璹,35.522980,139.752610,2014/07/17 09:40,0.033,��Sv/h,�],
�_�ސ쌧�S��,����@�璹,35.522980,139.752610,2014/07/17 09:30,0.033,��Sv/h,�],
�_�ސ쌧�S��,����@�璹,35.522980,139.752610,2014/07/17 09:20,0.033,��Sv/h,�],
�_�ސ쌧�S��,����@�璹,35.522980,139.752610,2014/07/17 09:10,0.033,��Sv/h,�],
�_�ސ쌧�S��,����@�璹,35.522980,139.752610,2014/07/17 09:00,0.033,��Sv/h,�],
�_�ސ쌧�S��,����@�璹,35.522980,139.752610,2014/07/17 08:50,0.033,��Sv/h,�],
�_�ސ쌧�S��,����@�璹,35.522980,139.752610,2014/07/17 08:40,0.033,��Sv/h,�],
�_�ސ쌧�S��,����@�璹,35.522980,139.752610,2014/07/17 08:30,0.033,��Sv/h,�],
�_�ސ쌧�S��,����@�璹,35.522980,139.752610,2014/07/17 08:20,0.033,��Sv/h,�],
�_�ސ쌧�S��,����@�璹,35.522980,139.752610,2014/07/17 08:10,0.033,��Sv/h,�],
�_�ސ쌧�S��,����@�璹,35.522980,139.752610,2014/07/17 08:00,0.033,��Sv/h,�],
�_�ސ쌧�S��,����@�璹,35.522980,139.752610,2014/07/17 07:50,0.034,��Sv/h,�],
�_�ސ쌧�S��,����@�璹,35.522980,139.752610,2014/07/17 07:40,0.034,��Sv/h,�],
�_�ސ쌧�S��,����@�璹,35.522980,139.752610,2014/07/17 07:30,0.034,��Sv/h,�],
�_�ސ쌧�S��,����@�璹,35.522980,139.752610,2014/07/17 07:20,0.033,��Sv/h,�],
�_�ސ쌧�S��,����@�璹,35.522980,139.752610,2014/07/17 07:10,0.033,��Sv/h,�],
�_�ސ쌧�S��,����@�璹,35.522980,139.752610,2014/07/17 07:00,0.033,��Sv/h,�],
�_�ސ쌧�S��,����@�璹,35.522980,139.752610,2014/07/17 06:50,0.033,��Sv/h,�],
�_�ސ쌧�S��,����@�璹,35.522980,139.752610,2014/07/17 06:40,0.034,��Sv/h,�],
�_�ސ쌧�S��,����@�璹,35.522980,139.752610,2014/07/17 06:30,0.033,��Sv/h,�],
�_�ސ쌧�S��,����@�璹,35.522980,139.752610,2014/07/17 06:20,0.033,��Sv/h,�],
�_�ސ쌧�S��,����@�璹,35.522980,139.752610,2014/07/17 06:10,0.033,��Sv/h,�],
�_�ސ쌧�S��,����@�璹,35.522980,139.752610,2014/07/17 06:00,0.033,��Sv/h,�],
�_�ސ쌧�S��,����@�璹,35.522980,139.752610,2014/07/17 05:50,0.033,��Sv/h,�],
�_�ސ쌧�S��,����@�璹,35.522980,139.752610,2014/07/17 05:40,0.033,��Sv/h,�],
�_�ސ쌧�S��,����@�璹,35.522980,139.752610,2014/07/17 05:30,0.033,��Sv/h,�],
�_�ސ쌧�S��,����@�璹,35.522980,139.752610,2014/07/17 05:20,0.033,��Sv/h,�],
�_�ސ쌧�S��,����@�璹,35.522980,139.752610,2014/07/17 05:10,0.034,��Sv/h,�],
�_�ސ쌧�S��,����@�璹,35.522980,139.752610,2014/07/17 05:00,0.033,��Sv/h,�],
�_�ސ쌧�S��,����@�璹,35.522980,139.752610,2014/07/17 04:50,0.033,��Sv/h,�],
�_�ސ쌧�S��,����@�璹,35.522980,139.752610,2014/07/17 04:40,0.033,��Sv/h,�],
�_�ސ쌧�S��,����@�璹,35.522980,139.752610,2014/07/17 04:30,0.033,��Sv/h,�],
�_�ސ쌧�S��,����@�璹,35.522980,139.752610,2014/07/17 04:20,0.033,��Sv/h,�],
�_�ސ쌧�S��,����@�璹,35.522980,139.752610,2014/07/17 04:10,0.033,��Sv/h,�],
�_�ސ쌧�S��,����@�璹,35.522980,139.752610,2014/07/17 04:00,0.034,��Sv/h,�],
�_�ސ쌧�S��,����@�璹,35.522980,139.752610,2014/07/17 03:50,0.033,��Sv/h,�],
�_�ސ쌧�S��,����@�璹,35.522980,139.752610,2014/07/17 03:40,0.033,��Sv/h,�],
�_�ސ쌧�S��,����@�璹,35.522980,139.752610,2014/07/17 03:30,0.033,��Sv/h,�],
�_�ސ쌧�S��,����@�璹,35.522980,139.752610,2014/07/17 03:20,0.033,��Sv/h,�],
�_�ސ쌧�S��,����@�璹,35.522980,139.752610,2014/07/17 03:10,0.033,��Sv/h,�],
�_�ސ쌧�S��,����@�璹,35.522980,139.752610,2014/07/17 03:00,0.033,��Sv/h,�],
�_�ސ쌧�S��,����@�璹,35.522980,139.752610,2014/07/17 02:50,0.033,��Sv/h,�],
�_�ސ쌧�S��,����@�璹,35.522980,139.752610,2014/07/17 02:40,0.033,��Sv/h,�],
�_�ސ쌧�S��,����@�璹,35.522980,139.752610,2014/07/17 02:30,0.033,��Sv/h,�],
�_�ސ쌧�S��,����@�璹,35.522980,139.752610,2014/07/17 02:20,0.033,��Sv/h,�],
�_�ސ쌧�S��,����@�璹,35.522980,139.752610,2014/07/17 02:10,0.033,��Sv/h,�],
�_�ސ쌧�S��,����@�璹,35.522980,139.752610,2014/07/17 02:00,0.033,��Sv/h,�],
�_�ސ쌧�S��,����@�璹,35.522980,139.752610,2014/07/17 01:50,0.033,��Sv/h,�],
�_�ސ쌧�S��,����@�璹,35.522980,139.752610,2014/07/17 01:40,0.033,��Sv/h,�],
�_�ސ쌧�S��,����@�璹,35.522980,139.752610,2014/07/17 01:30,0.033,��Sv/h,�],
�_�ސ쌧�S��,����@�璹,35.522980,139.752610,2014/07/17 01:20,0.033,��Sv/h,�],
�_�ސ쌧�S��,����@�璹,35.522980,139.752610,2014/07/17 01:10,0.033,��Sv/h,�],
�_�ސ쌧�S��,����@�璹,35.522980,139.752610,2014/07/17 01:00,0.033,��Sv/h,�],
�_�ސ쌧�S��,����@�璹,35.522980,139.752610,2014/07/17 00:50,0.033,��Sv/h,�],
�_�ސ쌧�S��,����@�璹,35.522980,139.752610,2014/07/17 00:40,0.033,��Sv/h,�],
�_�ސ쌧�S��,����@�璹,35.522980,139.752610,2014/07/17 00:30,0.033,��Sv/h,�],
�_�ސ쌧�S��,����@�璹,35.522980,139.752610,2014/07/17 00:20,0.033,��Sv/h,�],
�_�ސ쌧�S��,����@�璹,35.522980,139.752610,2014/07/17 00:10,0.033,��Sv/h,�],
�_�ސ쌧�S��,����@�璹,35.522980,139.752610,2014/07/17 00:00,0.033,��Sv/h,�],
�_�ސ쌧�S��,����@�璹,35.522980,139.752610,2014/07/16 23:50,0.032,��Sv/h,�],
�_�ސ쌧�S��,����@�璹,35.522980,139.752610,2014/07/16 23:40,0.033,��Sv/h,�],
�_�ސ쌧�S��,����@�璹,35.522980,139.752610,2014/07/16 23:30,0.033,��Sv/h,�],
�_�ސ쌧�S��,����@�璹,35.522980,139.752610,2014/07/16 23:20,0.032,��Sv/h,�],
�_�ސ쌧�S��,����@�璹,35.522980,139.752610,2014/07/16 23:10,0.033,��Sv/h,�],
�_�ސ쌧�S��,����@�璹,35.522980,139.752610,2014/07/16 23:00,0.032,��Sv/h,�],
�_�ސ쌧�S��,����@�璹,35.522980,139.752610,2014/07/16 22:50,0.033,��Sv/h,�],
�_�ސ쌧�S��,����@�璹,35.522980,139.752610,2014/07/16 22:40,0.033,��Sv/h,�],
�_�ސ쌧�S��,����@�璹,35.522980,139.752610,2014/07/16 22:30,0.033,��Sv/h,�],
�_�ސ쌧�S��,����@�璹,35.522980,139.752610,2014/07/16 22:20,0.033,��Sv/h,�],
�_�ސ쌧�S��,����@�璹,35.522980,139.752610,2014/07/16 22:10,0.033,��Sv/h,�],
�_�ސ쌧�S��,����@�璹,35.522980,139.752610,2014/07/16 22:00,0.033,��Sv/h,�],
�_�ސ쌧�S��,����@�璹,35.522980,139.752610,2014/07/16 21:50,0.033,��Sv/h,�],
�_�ސ쌧�S��,����@�璹,35.522980,139.752610,2014/07/16 21:40,0.033,��Sv/h,�],
�_�ސ쌧�S��,����@�璹,35.522980,139.752610,2014/07/16 21:30,0.033,��Sv/h,�],
�_�ސ쌧�S��,����@�璹,35.522980,139.752610,2014/07/16 21:20,0.033,��Sv/h,�],
�_�ސ쌧�S��,����@�璹,35.522980,139.752610,2014/07/16 21:10,0.032,��Sv/h,�],
�_�ސ쌧�S��,����@�璹,35.522980,139.752610,2014/07/16 21:00,0.033,��Sv/h,�],
�_�ސ쌧�S��,����@�璹,35.522980,139.752610,2014/07/16 20:50,0.033,��Sv/h,�],
�_�ސ쌧�S��,����@�璹,35.522980,139.752610,2014/07/16 20:40,0.033,��Sv/h,�],
�_�ސ쌧�S��,����@�璹,35.522980,139.752610,2014/07/16 20:30,0.033,��Sv/h,�],
�_�ސ쌧�S��,����@�璹,35.522980,139.752610,2014/07/16 20:20,0.033,��Sv/h,�],
�_�ސ쌧�S��,����@�璹,35.522980,139.752610,2014/07/16 20:10,0.033,��Sv/h,�],
�_�ސ쌧�S��,����@�璹,35.522980,139.752610,2014/07/16 20:00,0.033,��Sv/h,�],
�_�ސ쌧�S��,����@�璹,35.522980,139.752610,2014/07/16 19:50,0.032,��Sv/h,�],
�_�ސ쌧�S��,����@�璹,35.522980,139.752610,2014/07/16 19:40,0.033,��Sv/h,�],
�_�ސ쌧�S��,����@�璹,35.522980,139.752610,2014/07/16 19:30,0.032,��Sv/h,�],
�_�ސ쌧�S��,����@�璹,35.522980,139.752610,2014/07/16 19:20,0.033,��Sv/h,�],
�_�ސ쌧�S��,����@�璹,35.522980,139.752610,2014/07/16 19:10,0.033,��Sv/h,�],
�_�ސ쌧�S��,����@�璹,35.522980,139.752610,2014/07/16 19:00,0.032,��Sv/h,�],
�_�ސ쌧�S��,����@�璹,35.522980,139.752610,2014/07/16 18:50,0.033,��Sv/h,�],
�_�ސ쌧�S��,����@�璹,35.522980,139.752610,2014/07/16 18:40,0.032,��Sv/h,�],
�_�ސ쌧�S��,����@�璹,35.522980,139.752610,2014/07/16 18:30,0.032,��Sv/h,�],
�_�ސ쌧�S��,����@�璹,35.522980,139.752610,2014/07/16 18:20,0.032,��Sv/h,�],
�_�ސ쌧�S��,����@�璹,35.522980,139.752610,2014/07/16 18:10,0.032,��Sv/h,�],
�_�ސ쌧�S��,����@�璹,35.522980,139.752610,2014/07/16 18:00,0.032,��Sv/h,�],